Starlink 3518

operational
NORAD ID: 51732 Int'l Des: 2022-016 Owner: SPXS Country: US Constellation: starlink
LEOCIRCULAR

About Starlink 3518

Description loading...

Live Position

Loading 3D Globe...

Upcoming Passes

Altitude History

Altitude vs Time

uPlot chart will show altitude changes over time

Two-Line Element Set

1 51732U 22016U 25302.97150352 -.00000682 00000-0 -24754-4 0 9997
2 51732 53.2152 185.9363 0001265 92.9424 267.1713 15.08841294204978
Epoch: Oct 29, 2025 • Age: 17 hours

Current Status

Altitude 556.9 km
Velocity 7.58 km/s
Sub-Earth Point -47.68°S, 158.87°W
Launch Date Feb 21, 2022
Age 3.6 years
Type internet

Technical Details

Classification Payload
Mass 297.00 kg
Dry Mass 275.00 kg
Total Mass 297.00 kg
Length 0.20 m
Diameter 2.80 m
Span 9.00 m
Shape Box + pan
Manufacturer SPXS
Bus Type Starlink
Phase Status In Orbit
Owner/State SPXS/US

Large Constellations

Loading constellations...